Weather History for KLEE - September, 2013

Change the Weather History Date:

Monday, September 23, 2013

  Actual Average Record
Temperature  
Mean Temperature 78 °F -  
Max Temperature 82 °F 88 °F 98 °F (1990)
Min Temperature 73 °F 70 °F 62 °F (1966)
Cooling Degree Days 12    
Growing Degree Days 28 (Base 50)    
Moisture  
Dew Point 74 °F    
Average Humidity 95    
Maximum Humidity 100    
Minimum Humidity 79    
Precipitation  
Precipitation 0.49 in - - ()
Sea Level Pressure  
Sea Level Pressure 29.93 in    
Wind  
Wind Speed 5 mph (SE)    
Max Wind Speed 15 mph    
Max Gust Speed 23 mph    
Visibility 9 miles    
Events Rain    
Averages and records for this station are not official NWS values.
T = Trace of Precipitation, MM = Missing Value Source: NWS Daily Summary

Daily Weather History Graph

Daily Weather History Graph

Search for Another Location

Airport or City:

Trip Planner

Search our weather history database for the weather conditions in past years. The results will help you decide how hot, cold, wet, or windy it might be!

Date:

Astronomy

Sep. 23, 2013 Rise Set
Actual Time 7:16 AM EDT 7:22 PM EDT
Civil Twilight 6:52 AM EDT 7:45 PM EDT
Nautical Twilight 6:25 AM EDT 8:13 PM EDT
Astronomical Twilight 5:57 AM EDT 8:40 PM EDT
Moon 10:16 PM EDT (9/23) 11:12 AM EDT (9/23)
Length of Visible Light 12h 53m
Length of Day
12h 05m
Waning Gibbous, 81% of the Moon is Illuminated
Sep 23
Waning Gibbous
Sep 26
Last Quarter
Oct 4
New
Oct 11
First Quarter
Oct 18
Full

Hourly Weather History & Observations

Time (EDT) Temp. Heat Index Dew Point Humidity Pressure Visibility Wind Dir Wind Speed Gust Speed Precip Events Conditions
12:53 AM 77.0 °F - 75.9 °F 96% 29.88 in 10.0 mi Calm Calm - 0.01 in Rain Light Rain
1:53 AM 75.9 °F - 75.9 °F 100% 29.87 in 10.0 mi Calm Calm - 0.01 in Rain Light Rain
2:53 AM 75.9 °F - 75.0 °F 97% 29.87 in 10.0 mi ESE 4.6 mph - 0.00 in   Clear
3:53 AM 75.9 °F - 75.0 °F 97% 29.86 in 10.0 mi ESE 6.9 mph - N/A   Partly Cloudy
4:53 AM 77.0 °F - 75.0 °F 94% 29.88 in 10.0 mi SE 6.9 mph - N/A   Partly Cloudy
5:51 AM 75.2 °F - 75.2 °F 100% 29.90 in 10.0 mi SE 5.8 mph - N/A   Mostly Cloudy
5:53 AM 75.9 °F - 75.0 °F 97% 29.90 in 10.0 mi SE 5.8 mph - N/A   Mostly Cloudy
6:10 AM 75.2 °F - 75.2 °F 100% 29.90 in 10.0 mi SE 5.8 mph - N/A   Scattered Clouds
6:27 AM 75.2 °F - 75.2 °F 100% 29.91 in 10.0 mi SSE 4.6 mph - N/A   Partly Cloudy
6:53 AM 75.9 °F - 75.0 °F 97% 29.91 in 10.0 mi SE 4.6 mph - N/A   Partly Cloudy
7:53 AM 75.9 °F - 75.0 °F 97% 29.91 in 10.0 mi ESE 4.6 mph - 0.00 in   Partly Cloudy
8:53 AM 77.0 °F - 75.0 °F 94% 29.93 in 10.0 mi SSE 6.9 mph - N/A   Mostly Cloudy
9:28 AM 78.8 °F - 75.2 °F 89% 29.95 in 10.0 mi ESE 3.5 mph - N/A   Scattered Clouds
9:53 AM 78.1 °F - 75.0 °F 90% 29.95 in 10.0 mi SE 5.8 mph - 0.00 in Rain Light Rain
10:53 AM 77.0 °F - 75.0 °F 94% 29.97 in 7.0 mi ESE 3.5 mph - 0.03 in Rain Light Rain
11:53 AM 80.1 °F 85.8 °F 77.0 °F 90% 29.95 in 10.0 mi ENE 8.1 mph - 0.00 in   Partly Cloudy
12:53 PM 82.9 °F 90.8 °F 75.9 °F 79% 29.96 in 10.0 mi Variable 4.6 mph - N/A   Scattered Clouds
1:53 PM 81.0 °F 86.7 °F 75.0 °F 82% 29.92 in 10.0 mi SE 3.5 mph - N/A   Partly Cloudy
2:53 PM 78.1 °F - 75.9 °F 93% 29.94 in 3.0 mi South 6.9 mph - 0.12 in Rain Rain
3:53 PM 75.9 °F - 73.9 °F 94% 29.93 in 4.0 mi South 13.8 mph 23.0 mph 0.07 in Rain Rain
3:55 PM 75.2 °F - 73.4 °F 94% 29.93 in 4.0 mi South 15.0 mph 23.0 mph 0.01 in Rain Rain
4:53 PM 75.0 °F - 72.0 °F 90% 29.94 in 10.0 mi South 10.4 mph - 0.04 in   Overcast
5:53 PM 73.9 °F - 73.0 °F 97% 29.96 in 10.0 mi SSE 10.4 mph - 0.01 in Rain Light Rain
6:00 PM 73.4 °F - 73.4 °F 100% 29.96 in 10.0 mi SSE 8.1 mph - 0.00 in Rain Light Rain
6:53 PM 73.9 °F - 72.0 °F 93% 29.95 in 8.0 mi SSE 10.4 mph - 0.03 in Rain Light Rain
7:53 PM 73.9 °F - 73.0 °F 97% 29.94 in 7.0 mi SE 6.9 mph - 0.07 in Rain Rain
8:53 PM 73.9 °F - 73.0 °F 97% 29.95 in 10.0 mi SE 8.1 mph - 0.07 in Rain Light Rain
9:53 PM 73.9 °F - 73.0 °F 97% 29.97 in 10.0 mi SE 6.9 mph - 0.03 in   Mostly Cloudy
10:03 PM 73.4 °F - 73.4 °F 100% 29.98 in 10.0 mi SE 8.1 mph - N/A   Overcast
10:31 PM 75.2 °F - 73.4 °F 94% 29.98 in 10.0 mi SE 8.1 mph - N/A   Overcast
10:38 PM 75.2 °F - 73.4 °F 94% 29.98 in 10.0 mi SSE 8.1 mph - 0.00 in Rain Light Rain
10:53 PM 75.0 °F - 73.9 °F 96% 29.98 in 10.0 mi SSE 8.1 mph - 0.00 in   Overcast
11:53 PM 75.9 °F - 73.9 °F 94% 29.98 in 10.0 mi SSE 6.9 mph - N/A   Overcast